This is the latest recevied weather packets stored in our database for station/object N7CEE-2. If no packets are shown the sender has not sent any weather packets the latest 10 day(s).
| Time | Temp. | Humidity | Pressure | Rain* | Wind** | Luminosity | Snow |
|---|---|---|---|---|---|---|---|
| 1777418393 | 28.33° C | 17% | 1015.5 hPa | 0 mm | - | 436 W/m² | - |
| 1777418089 | 27.78° C | 18% | 1015.6 hPa | 0 mm | - | 458 W/m² | - |
| 1777417786 | 27.78° C | 18% | 1015.7 hPa | 0 mm | - | 525 W/m² | - |
| 1777417481 | 28.33° C | 18% | 1015.7 hPa | 0 mm | - | 519 W/m² | - |
| 1777417178 | 28.89° C | 19% | 1015.8 hPa | 0 mm | - | 562 W/m² | - |
| 1777416873 | 28.33° C | 19% | 1015.9 hPa | 0 mm | - | 592 W/m² | - |
| 1777416569 | 28.33° C | 19% | 1015.8 hPa | 0 mm | - | 611 W/m² | - |
| 1777416266 | 28.33° C | 18% | 1015.9 hPa | 0 mm | - | 626 W/m² | - |
| 1777415965 | 27.78° C | 19% | 1015.9 hPa | 0 mm | - | 646 W/m² | - |
| 1777415661 | 28.33° C | 19% | 1016 hPa | 0 mm | - | 661 W/m² | - |
| 1777415356 | 28.33° C | 18% | 1016.1 hPa | 0 mm | - | 682 W/m² | - |
| 1777415050 | 28.33° C | 19% | 1016.1 hPa | 0 mm | - | 704 W/m² | - |
| 1777414749 | 27.78° C | 19% | 1016.1 hPa | 0 mm | - | 715 W/m² | - |
| 1777414447 | 28.33° C | 19% | 1016.2 hPa | 0 mm | - | 727 W/m² | - |
| 1777414145 | 28.33° C | 19% | 1016.6 hPa | 0 mm | - | 748 W/m² | - |
| 1777413841 | 28.33° C | 19% | 1016.5 hPa | 0 mm | - | 772 W/m² | - |
| 1777413536 | 27.78° C | 20% | 1016.5 hPa | 0 mm | - | 786 W/m² | - |
| 1777413233 | 28.89° C | 19% | 1016.9 hPa | 0 mm | - | 787 W/m² | - |
| 1777412929 | 27.78° C | 19% | 1017 hPa | 0 mm | - | 799 W/m² | - |
| 1777412628 | 27.78° C | 20% | 1017 hPa | 0 mm | - | 810 W/m² | - |
| 1777412324 | 28.33° C | 18% | 1017.1 hPa | 0 mm | - | 820 W/m² | - |
| 1777412020 | 27.78° C | 19% | 1017 hPa | 0 mm | - | 831 W/m² | - |
| 1777411719 | 27.78° C | 19% | 1017.1 hPa | 0 mm | - | 843 W/m² | - |
| 1777411415 | 27.22° C | 17% | 1017.2 hPa | 0 mm | - | 856 W/m² | - |
| 1777411115 | 27.78° C | 18% | 1017.2 hPa | 0 mm | - | 852 W/m² | - |
* Rain latest hour (hover to see other rain measurements)
** Current wind speed in m/s (hover to see current wind gust speed)